Weather History for KPTK

Nearest airport to NA, NA.

See history from more local stations
Change the Weather History Date:

Thursday, February 3, 2000

  Actual Average Record
Temperature  
Mean Temperature 26 °F -  
Max Temperature 32 °F 31 °F 46 °F (2003)
Min Temperature 21 °F 17 °F 0 °F (2014)
Degree Days  
Heating Degree Days 38    
Moisture  
Dew Point 24 °F    
Average Humidity 90    
Maximum Humidity 96    
Minimum Humidity 78    
Precipitation  
Precipitation 0.11 in - - ()
Snow  
Snow 0.00 in - - ()
Snow Depth 5.00 in    
Sea Level Pressure  
Sea Level Pressure 29.72 in    
Wind  
Wind Speed 7 mph (South)    
Max Wind Speed 9 mph    
Max Gust Speed -    
Visibility 2 miles    
Events Rain , Snow    
Averages and records for this station are not official NWS values.
T = Trace of Precipitation, MM = Missing Value Source: NWS Daily Summary

Daily Weather History Graph

Daily Weather History Graph

Search for Another Location

Airport or City:

Trip Planner

Search our weather history database for the weather conditions in past years. The results will help you decide how hot, cold, wet, or windy it might be!

Date:

Astronomy

Feb. 03, 2000 Rise Set
Actual Time 7:46 AM EST 5:49 PM EST
Civil Twilight 7:16 AM EST 6:18 PM EST
Nautical Twilight 6:42 AM EST 6:52 PM EST
Astronomical Twilight 6:09 AM EST 7:25 PM EST
Moon 6:33 AM EST (2/3) 4:10 PM EST (2/3)
Length of Visible Light 11h 02m
Length of Day
10h 02m
Waning Crescent, 3% of the Moon is Illuminated
Feb 3
Waning Crescent
Feb 5
New
Feb 12
First Quarter
Feb 19
Full
Feb 26
Last Quarter

Hourly Weather History & Observations

Time (EST) Temp. Windchill Dew Point Humidity Pressure Visibility Wind Dir Wind Speed Gust Speed Precip Events Conditions
12:53 AM 23.0 °F 13.1 °F 17.1 °F 78% 29.88 in 1.5 mi SW 9.2 mph - 0.00 in Snow Light Snow
1:06 AM 23.0 °F 13.1 °F 17.6 °F 80% 29.83 in 1.5 mi SSW 9.2 mph - 0.00 in Snow Light Snow
1:19 AM 21.2 °F 11.7 °F 17.6 °F 86% 29.82 in 0.8 mi SSW 8.1 mph - 0.00 in Snow Light Snow
1:30 AM 21.2 °F 13.6 °F 19.4 °F 93% 29.81 in 0.8 mi SSW 5.8 mph - 0.01 in Snow Light Snow
1:53 AM 21.9 °F 12.5 °F 19.9 °F 92% 29.84 in 1.0 mi South 8.1 mph - 0.02 in Snow Light Snow
2:15 AM 21.2 °F 11.7 °F 19.4 °F 93% 29.79 in 1.2 mi South 8.1 mph - 0.01 in Snow Light Snow
2:53 AM 23.0 °F 13.9 °F 19.9 °F 88% 29.82 in 1.0 mi South 8.1 mph - 0.02 in Snow Light Snow
3:03 AM 23.0 °F 13.9 °F 19.4 °F 86% 29.77 in 1.0 mi South 8.1 mph - 0.00 in Snow Light Snow
3:11 AM 23.0 °F 14.7 °F 19.4 °F 86% 29.76 in 0.8 mi South 6.9 mph - 0.00 in Snow Light Snow
3:20 AM 23.0 °F 13.9 °F 19.4 °F 86% 29.75 in 1.0 mi South 8.1 mph - 0.01 in Snow Light Snow
3:31 AM 23.0 °F 14.7 °F 21.2 °F 93% 29.76 in 2.0 mi SSW 6.9 mph - 0.01 in Snow Light Snow
3:53 AM 23.0 °F 13.9 °F 19.9 °F 88% 29.78 in 1.5 mi South 8.1 mph - 0.01 in Snow Light Snow
4:03 AM 23.0 °F 13.9 °F 19.4 °F 86% 29.73 in 2.5 mi South 8.1 mph - 0.00 in Snow Light Snow
4:13 AM 23.0 °F 13.9 °F 21.2 °F 93% 29.74 in 1.8 mi South 8.1 mph - 0.00 in Snow Light Snow
4:20 AM 23.0 °F 13.9 °F 19.4 °F 86% 29.73 in 3.0 mi South 8.1 mph - 0.00 in Snow Light Snow
4:53 AM 23.0 °F 14.7 °F 19.9 °F 88% 29.76 in 5.0 mi South 6.9 mph - 0.00 in   Overcast
5:05 AM 23.0 °F 15.8 °F 19.4 °F 86% 29.72 in 5.0 mi South 5.8 mph - N/A   Overcast
5:41 AM 24.8 °F 16.9 °F 21.2 °F 86% 29.71 in 5.0 mi SSW 6.9 mph - N/A   Overcast
5:53 AM 24.1 °F 16.0 °F 21.0 °F 88% 29.74 in 4.0 mi South 6.9 mph - N/A   Overcast
6:53 AM 25.0 °F 17.1 °F 21.9 °F 88% 29.74 in 3.0 mi SSW 6.9 mph - N/A   Overcast
6:59 AM 24.8 °F 17.9 °F 21.2 °F 86% 29.70 in 2.0 mi SSW 5.8 mph - N/A   Overcast
7:31 AM 24.8 °F 16.9 °F 23.0 °F 93% 29.69 in 2.0 mi South 6.9 mph - 0.00 in Snow Light Snow
7:53 AM 25.0 °F 17.1 °F 24.1 °F 96% 29.72 in 2.0 mi South 6.9 mph - 0.00 in Snow Light Snow
8:27 AM 26.6 °F 19.1 °F 24.8 °F 93% 29.67 in 2.0 mi South 6.9 mph - 0.00 in Snow Light Snow
8:53 AM 26.1 °F 18.4 °F 24.1 °F 92% 29.70 in 2.0 mi South 6.9 mph - 0.00 in   Overcast
9:26 AM 26.6 °F 18.2 °F 24.8 °F 93% 29.66 in 1.8 mi South 8.1 mph - 0.00 in   Light Freezing Drizzle
9:53 AM 27.0 °F 18.7 °F 25.0 °F 92% 29.70 in 1.8 mi South 8.1 mph - 0.00 in   Light Freezing Drizzle
10:53 AM 28.0 °F 21.7 °F 27.0 °F 96% 29.70 in 1.2 mi South 5.8 mph - 0.00 in   Light Freezing Drizzle
11:37 AM 28.4 °F 21.2 °F 26.6 °F 93% 29.66 in 1.5 mi South 6.9 mph - 0.00 in Snow Light Snow
11:53 AM 28.9 °F 21.1 °F 27.0 °F 92% 29.69 in 1.8 mi SSW 8.1 mph - 0.00 in Snow Light Snow
12:53 PM 30.0 °F 24.1 °F 27.0 °F 88% 29.66 in 2.0 mi South 5.8 mph - 0.00 in   Overcast
1:53 PM 30.0 °F 24.1 °F 28.0 °F 92% 29.65 in 2.0 mi South 5.8 mph - N/A   Overcast
2:53 PM 30.9 °F 25.2 °F 28.9 °F 92% 29.64 in 2.0 mi South 5.8 mph - N/A   Overcast
3:53 PM 32.0 °F 28.7 °F 28.9 °F 88% 29.65 in 2.0 mi South 3.5 mph - N/A   Overcast
4:08 PM 32.0 °F 27.5 °F 28.4 °F 87% 29.62 in 2.0 mi South 4.6 mph - N/A   Overcast
4:53 PM 30.9 °F 26.2 °F 30.0 °F 96% 29.66 in 1.0 mi SSE 4.6 mph - N/A   Overcast
5:23 PM 32.0 °F 28.7 °F 30.2 °F 93% 29.63 in 0.8 mi South 3.5 mph - N/A   Overcast
5:30 PM 32.0 °F 28.7 °F 30.2 °F 93% 29.64 in 0.8 mi SSE 3.5 mph - 0.00 in Rain Light Freezing Rain
5:53 PM 32.0 °F 28.7 °F 30.0 °F 92% 29.67 in 0.8 mi SSE 3.5 mph - 0.00 in Snow Light Snow
6:53 PM 32.0 °F 27.5 °F 30.0 °F 92% 29.68 in 1.0 mi SE 4.6 mph - 0.00 in Snow Light Snow
7:53 PM 32.0 °F 27.5 °F 30.0 °F 92% 29.68 in 1.0 mi ESE 4.6 mph - 0.00 in Snow Light Snow
8:53 PM 32.0 °F 27.5 °F 30.9 °F 96% 29.68 in 1.5 mi East 4.6 mph - 0.01 in Snow Light Snow
9:31 PM 32.0 °F 28.7 °F 30.2 °F 93% 29.65 in 0.8 mi ENE 3.5 mph - 0.01 in Snow Light Snow
9:53 PM 32.0 °F 27.5 °F 30.0 °F 92% 29.68 in 0.8 mi East 4.6 mph - 0.02 in Snow Light Snow
10:53 PM 32.0 °F 28.7 °F 28.9 °F 88% 29.69 in 0.8 mi ENE 3.5 mph - 0.01 in Snow Light Snow
11:53 PM 30.9 °F 26.2 °F 30.0 °F 96% 29.69 in 0.8 mi NE 4.6 mph - 0.02 in Snow Light Snow